Location: Arbon
(43.0005°N, 0.7472°E)
Time: 22:53:35
(UTC+00:00)

Altair - Pass Details

Date: 02 December 2020
Orbit: 1501 x 1682 km, 47.2° (Epoch: 26 January)

Event Time Altitude Azimuth Distance (km) Brightness Sun altitude
Rises 03:40:22 0° 290° (WNW) 4,637 - -37.6°
Reaches altitude 10° 03:44:28 10° 274° (W) 3,658 - -36.9°
Maximum altitude 03:50:22 19° 233° (SW) 3,005 - -35.8°
Drops below altitude 10° 03:56:22 10° 192° (SSW) 3,699 - -34.7°
Exits shadow 03:56:22 10° 192° (SSW) 3,700 9.4 -34.7°
Sets 04:00:35 0° 176° (S) 4,707 10.1 -33.9°
